Tracking 30685 objects as of 18-Jun-2025
HD Live streaming from Space Station
objects crossing your sky now

STARLINK-32435

Track STARLINK-32435 now!
10-day predictions
STARLINK-32435 is classified as:


NORAD ID: 61259
Int'l Code: 2024-175S
Perigee: 481.6 km
Apogee: 483.1 km
Inclination: 53.2 °
Period: 94.1 minutes
Semi major axis: 6853 km
RCS: Unknown
Launch date: September 25, 2024
Source: United States (US)
Launch site: AIR FORCE WESTERN TEST RANGE (AFWTR)
Your satellite tracking list
Your tracking list is empty




NASA's NSSDC Master Catalog

Two Line Element Set (TLE):
1 61259U 24175S   25168.85239895 -.00001060  00000-0 -23670-4 0  9994
2 61259  53.1605 344.3396 0001061  83.8312 276.2810 15.30195925 40909
Source of the keplerian elements: AFSPC